GFSGL_500_spd_129.txt.gz
Wind_Speed
36 42 48 50 51 51 50 48 41 40 40 43 44 43 39 40 37 41 37 33 29 26 22 19 17 14 9 12 12 12 3 15 21 21 15 12 13 14 15 16 13 11 10
40 42 43 47 50 50 47 45 44 39 40 43 45 47 46 48 47 47 43 41 37 31 26 24 20 17 13 10 9 10 8 4 2 4 9 11 12 13 13 12 11 13 12
44 47 47 45 44 45 45 45 43 42 42 44 46 47 51 52 52 52 57 56 46 39 33 30 25 22 18 15 10 9 6 4 4 3 8 10 10 10 11 11 12 14 17
48 49 48 46 42 40 41 42 41 42 43 44 44 47 50 51 54 55 57 65 51 47 40 36 31 24 21 20 15 15 11 9 6 9 10 10 10 11 14 14 16 19 22
49 48 46 44 42 39 38 38 40 42 44 45 44 44 50 52 50 53 53 60 55 49 44 42 33 29 27 23 22 22 19 15 13 12 15 14 15 12 14 14 19 16 19
48 45 41 41 41 37 36 36 37 39 40 44 43 45 50 51 51 48 51 53 39 57 55 45 36 36 32 28 25 26 24 21 19 15 17 18 17 16 17 17 17 19 21
46 41 38 37 35 35 37 36 37 40 38 40 41 44 47 48 47 43 44 47 44 41 32 30 37 30 30 31 27 26 28 27 23 22 21 22 20 21 21 22 23 22 24
41 37 36 35 33 37 38 36 37 37 40 39 43 43 45 46 42 43 45 42 47 51 49 45 34 29 29 31 31 30 29 31 29 20 26 26 24 25 26 27 26 26 27
38 35 35 35 35 39 36 37 33 29 27 33 38 43 44 44 42 45 41 40 48 51 54 46 24 29 34 33 33 35 32 30 32 32 26 27 26 28 25 30 33 31 24
35 33 33 34 37 37 32 29 28 27 28 28 30 34 38 41 41 40 38 39 38 38 35 26 29 31 34 33 33 33 31 34 35 32 34 30 32 31 30 28 31 33 25
35 32 31 29 34 22 18 17 23 21 24 26 28 27 30 38 42 45 44 41 41 44 38 35 32 36 37 35 37 31 32 36 38 37 31 29 27 25 33 33 33 31 25
33 30 29 31 31 18 17 20 23 25 22 21 24 32 32 37 41 44 43 45 45 46 44 42 44 41 38 36 37 39 37 35 37 37 33 31 31 34 35 41 40 33 28
31 27 26 27 29 21 20 20 23 23 23 23 27 31 36 33 32 48 41 46 48 47 46 44 42 42 41 42 40 42 41 39 36 38 36 32 33 34 36 39 39 28 32
26 28 27 21 23 16 18 19 21 24 25 28 32 34 32 34 34 24 29 38 42 45 45 45 48 47 46 45 43 44 43 40 39 38 34 32 32 39 38 37 31 35 33
28 26 23 18 11 17 17 20 19 20 18 16 17 19 26 32 21 20 25 27 36 41 43 44 44 45 47 47 47 46 44 39 36 36 37 36 37 43 40 41 41 31 29
27 22 20 21 17 15 21 19 19 13 10 11 11 10 11 13 23 31 29 27 29 34 39 40 40 42 44 45 45 41 40 38 38 38 35 35 35 37 39 33 32 24 19
29 16 19 22 16 15 18 20 18 15 13 11 13 14 14 11 14 13 27 32 30 29 27 35 38 40 42 41 38 38 37 38 36 33 31 26 23 26 28 27 25 26 27
15 9 16 20 19 15 20 27 25 21 15 13 13 14 15 13 12 11 9 10 16 26 31 32 32 35 37 38 37 38 36 33 29 28 25 30 27 23 24 26 27 24 22
8 10 10 16 17 18 17 24 26 22 18 15 15 15 15 15 15 15 14 11 12 14 17 19 22 25 26 26 27 29 30 27 30 30 30 29 28 27 25 24 22 19 18
13 12 10 18 20 17 20 22 25 26 22 19 20 18 15 15 15 16 16 14 14 14 15 15 15 16 17 19 20 22 23 24 24 25 26 26 26 25 23 21 19 19 18
16 14 13 12 13 14 18 22 27 27 26 22 20 17 17 17 17 18 16 16 17 19 18 18 17 17 16 18 19 20 21 22 23 23 24 25 25 24 23 22 21 19 17
12 13 12 10 10 16 19 18 20 21 22 21 20 22 22 21 19 19 18 18 17 18 19 20 20 19 19 20 21 21 22 23 24 24 24 26 28 29 28 26 24 21 18
13 14 15 15 16 15 15 18 19 20 21 21 18 22 22 23 22 20 19 21 21 20 21 21 20 19 21 22 22 22 21 21 22 26 28 29 30 30 28 28 25 23 23
13 13 16 17 16 18 18 17 16 18 19 19 18 20 21 22 22 21 20 21 23 22 22 23 21 21 23 24 24 24 24 25 28 29 29 31 33 31 29 29 28 27 27
17 21 15 14 14 15 17 17 17 20 19 18 18 19 21 23 23 20 20 21 22 23 23 25 25 25 25 26 25 24 24 24 25 26 28 29 31 31 32 32 32 33 33
16 22 19 16 19 19 17 17 15 18 17 18 20 20 19 21 24 23 23 24 24 23 24 25 27 28 27 26 27 28 29 29 30 30 31 32 33 35 37 37 37 38 39

GFSGL_500_spd_132.txt.gz
Wind_Speed
37 39 39 42 46 50 51 52 51 52 50 48 41 40 44 48 50 44 41 47 42 37 34 31 30 28 24 19 13 11 9 6 14 13 16 19 16 15 13 15 17 16 14
41 42 43 44 44 46 50 51 52 52 50 47 43 42 44 49 50 51 43 49 48 44 41 39 36 35 31 26 17 13 8 5 1 15 19 14 13 14 12 13 12 15 15
43 46 48 47 46 47 50 51 51 51 48 45 45 43 48 51 50 49 50 53 53 50 47 44 42 40 35 31 24 18 15 11 5 11 8 8 8 10 11 11 13 14 15
44 47 49 50 50 50 51 52 47 46 46 45 44 45 49 53 53 49 54 57 58 52 53 52 50 47 42 36 32 25 23 14 12 9 11 12 12 12 12 12 14 15 15
46 47 49 51 52 51 50 48 44 42 44 44 44 46 48 52 53 51 50 60 61 55 56 59 64 56 50 43 39 32 28 20 18 17 14 14 13 14 15 15 15 16 19
50 52 54 54 52 49 45 42 41 40 42 44 42 44 45 47 48 51 51 56 63 59 61 66 64 58 54 47 45 37 33 28 23 23 20 17 17 16 18 20 20 18 21
55 55 54 52 47 44 41 40 39 40 41 42 44 44 42 43 46 48 51 52 56 55 54 57 53 64 58 57 49 43 38 31 28 27 23 25 24 20 21 22 23 23 23
55 52 48 43 41 41 40 39 39 40 42 42 42 45 43 43 45 47 49 49 50 52 52 45 50 57 65 60 54 50 40 33 30 28 29 30 29 26 24 25 26 27 29
50 46 40 39 37 38 37 38 40 41 44 42 39 39 43 41 45 45 45 44 46 44 43 44 49 49 50 63 65 57 42 35 33 32 31 29 29 23 27 24 27 27 31
43 40 38 38 37 34 35 37 36 42 37 39 37 36 31 37 41 41 41 40 38 41 38 40 38 39 45 38 43 23 39 38 36 33 33 34 31 27 27 29 31 30 28
40 39 41 37 37 31 32 33 33 22 22 22 30 33 30 32 34 36 41 41 38 38 37 38 38 33 49 53 43 49 45 39 36 35 34 33 33 29 26 24 24 29 31
38 37 35 37 29 29 30 31 24 18 19 23 20 23 26 27 27 28 35 36 36 37 37 40 39 36 41 37 52 35 26 29 30 30 29 30 32 32 32 28 27 33 36
33 29 27 25 26 30 31 27 25 17 19 20 21 25 20 22 25 29 30 31 31 36 40 44 44 42 33 31 21 34 31 29 33 29 30 32 32 35 34 31 33 36 37
31 27 26 28 26 29 27 23 21 21 22 20 23 25 28 26 23 28 30 28 34 42 43 43 43 44 38 34 34 27 31 34 32 31 32 34 33 34 35 34 33 36 37
30 31 31 30 28 22 19 14 15 16 17 19 23 20 13 17 22 23 31 30 31 27 35 36 45 44 42 38 35 36 39 40 39 37 36 37 36 34 36 36 38 39 38
31 33 31 28 22 20 16 15 18 17 15 15 14 11 9 9 12 14 20 24 21 21 25 33 38 43 42 41 43 42 43 42 41 41 39 38 37 37 38 39 38 37 33
28 29 27 27 19 20 15 17 16 16 15 14 10 12 13 14 12 9 5 24 25 24 20 25 34 38 41 41 43 44 45 44 42 41 39 38 40 41 41 39 35 37 39
24 23 18 11 17 23 14 17 20 19 20 17 15 15 15 13 12 8 7 7 19 27 26 24 27 35 38 41 43 44 43 42 40 38 38 39 39 39 37 29 26 26 27
18 18 13 6 11 22 22 16 19 22 23 23 19 16 15 15 14 10 7 7 8 8 13 21 28 27 26 27 35 39 42 40 39 40 40 37 37 30 27 30 32 31 30
16 13 12 11 13 16 20 17 19 17 21 22 23 17 16 17 16 13 12 14 14 13 10 10 12 13 16 21 26 30 32 33 34 36 35 34 31 31 33 32 33 31 29
14 14 14 13 11 13 13 17 18 20 24 20 24 21 18 18 18 15 14 15 17 18 17 17 16 15 15 16 18 21 24 25 27 28 28 28 29 31 32 31 32 30 28
11 13 11 14 13 12 13 18 18 21 24 23 24 24 23 20 17 17 16 16 17 17 16 18 19 19 20 18 18 19 19 20 21 23 25 27 28 29 30 31 31 30 30
14 13 17 15 13 14 10 12 16 20 18 19 19 20 25 22 21 19 18 19 18 18 17 17 18 19 20 20 21 22 23 24 24 26 27 27 29 31 31 32 33 33 33
12 13 12 16 18 16 16 15 14 14 16 18 20 20 21 19 19 19 19 20 20 19 18 19 20 21 22 22 22 22 23 24 26 28 29 29 30 31 32 33 35 35 35
20 21 18 17 15 11 18 14 17 17 17 15 14 18 19 18 17 19 19 20 22 22 21 20 20 22 24 24 24 23 24 26 28 29 30 31 32 33 34 35 36 36 37
18 17 18 16 19 17 15 17 18 21 20 20 17 18 17 18 19 17 17 19 21 23 20 21 22 24 24 24 24 24 25 27 29 30 30 30 30 31 32 34 36 39 39

GFSGL_500_spd_135.txt.gz
Wind_Speed
36 37 38 39 41 42 43 46 48 50 49 49 50 49 48 47 46 45 49 53 49 46 37 35 34 36 33 29 28 26 24 24 21 26 23 22 20 20 22 21 18 17 15
41 42 42 44 47 47 47 47 50 51 52 52 52 51 50 49 48 47 48 52 55 51 43 44 41 41 37 35 32 28 24 24 20 22 25 25 24 20 19 20 18 16 16
45 45 47 49 50 51 53 53 52 53 53 54 54 53 51 50 50 49 49 53 55 57 54 51 47 47 42 39 36 33 31 27 25 18 29 28 29 24 18 16 15 14 15
51 50 51 53 54 54 54 54 55 57 57 56 55 54 52 51 50 50 51 55 57 55 59 58 57 55 48 45 42 39 37 31 31 19 19 26 22 18 17 18 18 17 16
56 54 55 55 56 56 58 60 58 57 57 56 51 49 49 48 47 45 51 56 58 54 54 58 62 59 56 52 50 45 42 39 36 31 26 20 21 22 22 21 21 20 19
57 56 58 57 57 59 60 61 61 59 54 52 45 45 46 45 46 46 49 51 57 56 53 58 62 61 60 58 54 50 46 44 41 40 37 26 25 24 24 23 23 22 20
58 58 59 61 62 60 60 58 57 52 49 45 43 44 44 44 44 45 47 47 52 56 55 53 61 63 63 61 61 56 55 54 46 45 42 34 25 27 29 22 23 22 21
59 58 57 58 57 55 51 49 48 48 44 43 42 44 42 40 42 45 45 44 46 50 52 51 54 58 66 62 66 60 69 59 51 51 46 37 33 32 28 27 26 24 25
59 55 54 51 50 48 48 45 42 41 42 41 42 43 43 42 43 43 44 43 44 46 49 49 50 50 57 63 61 60 65 55 61 58 51 46 44 38 33 33 29 28 26
61 59 57 52 50 46 45 42 43 38 38 38 37 42 38 37 38 39 38 42 45 45 46 48 46 46 50 54 60 57 58 60 56 69 59 53 47 42 41 33 28 29 31
59 50 40 38 43 43 41 38 35 31 34 35 36 25 26 27 31 29 28 36 38 40 43 45 46 48 49 50 54 58 53 58 58 65 69 62 53 47 45 34 31 28 33
39 37 40 41 40 38 39 31 32 32 31 33 21 21 19 15 19 24 25 25 31 36 38 41 41 43 46 48 50 50 46 56 67 73 73 65 54 52 44 39 36 34 32
41 39 36 36 37 34 29 32 31 30 28 26 14 21 18 16 16 20 26 24 24 28 34 39 40 41 43 47 45 48 46 51 44 60 66 64 56 50 42 39 33 37 36
36 34 34 34 34 33 38 34 32 27 27 21 21 17 14 16 19 22 27 26 29 28 28 31 36 38 40 42 43 44 36 43 44 55 49 47 20 44 40 35 36 42 35
30 32 34 33 32 32 34 31 23 22 16 13 11 12 15 15 14 14 16 16 26 30 30 32 32 37 42 41 38 38 41 41 47 19 27 24 35 36 30 29 32 32 31
30 32 34 31 29 30 28 27 22 17 12 12 13 13 9 9 12 10 5 14 18 26 25 26 30 31 34 35 37 41 39 32 29 26 27 25 23 25 27 31 31 32 33
34 33 26 28 29 34 30 22 18 14 13 14 13 10 10 10 9 11 9 8 22 16 23 18 17 22 28 28 32 35 32 37 32 29 28 30 30 31 32 32 34 35 37
17 19 23 25 24 13 21 21 15 15 14 15 15 13 12 13 12 12 10 9 13 19 33 13 19 20 22 27 29 32 33 34 36 40 36 37 37 36 36 36 38 39 41
22 18 22 19 12 3 18 23 15 17 19 20 20 19 15 14 12 13 12 9 7 10 7 12 25 28 23 28 28 32 36 37 40 42 41 37 38 39 39 40 39 39 39
21 19 17 16 14 13 11 15 15 16 16 17 15 19 20 16 14 14 13 13 13 13 10 9 7 7 8 14 25 22 36 36 38 39 37 38 38 40 40 39 39 39 39
17 15 12 12 14 10 11 7 11 12 12 14 11 16 19 17 14 15 15 13 14 16 17 15 13 12 13 11 9 10 20 30 40 42 43 41 40 42 39 41 41 40 39
18 15 13 13 11 9 11 11 15 13 15 18 21 20 18 19 18 16 15 14 14 13 12 14 17 17 16 14 13 14 16 16 18 20 22 25 28 31 36 36 38 38 37
16 17 14 13 16 14 12 14 15 8 10 11 12 14 14 18 19 20 19 17 15 16 16 16 16 16 18 20 19 18 19 19 20 21 23 24 26 27 28 29 31 32 33
17 16 15 15 15 14 15 16 17 16 10 11 11 13 15 14 16 16 15 14 14 16 17 16 16 17 19 19 20 22 22 22 24 25 26 26 27 28 29 30 32 33 33
22 18 17 19 20 17 15 16 16 11 14 16 11 16 17 16 15 15 16 16 16 14 13 13 15 16 18 20 21 22 24 24 25 26 27 28 28 28 28 29 30 31 33
24 20 16 16 17 19 19 19 14 14 18 20 18 18 16 16 17 17 19 18 18 19 20 17 19 20 19 19 19 21 25 26 27 28 29 29 30 30 31 32 32 34 34

GFSGL_500_spd_138.txt.gz
Wind_Speed
36 35 33 34 37 39 41 41 42 44 47 49 50 50 50 51 50 50 48 48 48 46 47 46 48 42 44 41 40 34 32 31 28 29 31 31 29 27 26 23 26 30 28
40 39 40 42 44 44 46 48 49 51 52 52 52 52 52 53 53 54 52 50 49 48 48 50 48 46 45 45 38 36 34 31 29 27 29 30 29 24 27 23 25 26 27
44 45 48 52 52 52 52 52 53 54 54 54 55 55 56 55 55 55 55 53 50 49 47 50 51 49 45 43 39 38 38 37 34 30 26 28 27 27 30 28 25 27 28
51 54 55 56 56 56 55 56 57 57 55 56 57 58 59 57 57 57 56 55 53 50 49 49 53 54 50 48 47 43 42 41 39 36 28 26 28 26 41 34 27 26 24
56 56 57 57 57 58 60 60 60 60 58 61 60 60 60 56 54 56 57 54 52 51 50 50 52 55 54 55 53 50 49 46 45 41 33 30 27 25 24 26 25 27 26
58 60 62 62 60 59 60 61 61 58 61 59 62 59 57 53 51 52 53 53 52 50 49 49 52 55 58 56 59 57 56 53 50 46 40 35 31 27 24 29 26 29 28
63 65 64 64 63 64 62 58 58 59 57 57 54 53 51 51 49 49 50 51 50 48 47 47 49 53 56 58 59 62 63 62 55 50 45 40 38 38 39 36 29 30 31
66 67 66 65 63 62 61 59 57 58 53 50 49 51 51 47 46 46 46 46 42 42 44 47 47 49 53 57 57 61 61 64 59 54 50 43 44 44 40 39 37 36 33
68 69 69 69 66 63 59 58 53 53 47 48 50 50 51 43 40 43 46 46 44 42 43 45 45 46 49 55 57 59 59 62 61 58 56 50 49 55 49 48 40 39 34
70 70 70 66 61 54 50 43 44 41 42 45 47 45 38 37 41 43 47 47 44 43 43 42 43 44 45 50 56 55 59 61 62 62 56 53 57 59 57 54 47 42 39
60 58 54 51 46 44 39 39 42 39 39 40 38 35 38 36 40 36 36 38 33 34 36 40 42 43 44 46 49 53 51 55 59 65 60 61 61 60 59 58 52 47 46
54 51 46 43 40 42 36 37 35 36 35 34 35 34 34 37 25 17 14 21 26 28 28 31 35 38 43 45 47 46 47 50 54 56 63 63 59 61 63 63 62 54 52
44 42 41 36 36 32 29 32 33 34 34 34 36 31 31 22 22 17 17 20 24 24 25 26 33 34 38 44 43 44 48 50 48 48 49 51 54 61 61 62 66 62 58
38 35 33 29 29 29 31 30 29 30 30 33 28 24 23 21 17 15 15 17 20 23 24 23 27 30 33 36 40 40 40 43 45 48 49 54 47 60 59 63 61 65 62
33 32 29 31 32 31 33 29 27 27 27 25 22 20 15 14 14 11 12 17 19 23 24 25 24 27 31 34 35 36 37 41 41 42 44 47 41 42 54 63 70 68 65
31 32 33 32 32 29 27 30 26 24 29 20 17 16 11 5 4 7 9 17 29 6 12 21 23 26 30 33 35 37 38 41 39 39 32 37 36 44 46 47 63 63 60
29 32 29 25 24 26 30 30 27 20 15 14 15 13 10 7 8 10 11 12 20 13 14 17 23 19 17 25 31 33 32 33 35 36 37 23 28 25 38 33 49 52 32
29 29 28 21 25 22 23 10 13 10 12 8 12 13 11 10 10 10 10 12 12 13 16 20 24 14 24 32 22 20 20 26 31 25 25 29 30 23 31 21 26 40 30
27 27 28 20 17 17 16 7 13 12 12 12 12 13 13 16 13 11 11 12 13 10 9 10 11 12 12 16 14 14 16 17 22 25 26 27 28 28 31 32 30 32 30
25 23 22 18 16 14 16 14 11 14 12 16 11 10 5 13 17 11 11 11 12 13 11 8 7 4 3 12 17 21 19 17 19 23 26 27 29 30 30 36 35 34 31
25 20 19 19 17 13 12 12 8 6 11 12 1 5 11 13 12 13 11 11 12 13 14 13 12 10 8 9 7 9 16 22 23 25 27 28 32 33 32 30 34 37 36
27 22 20 18 18 15 14 12 10 10 10 5 3 6 8 11 13 12 11 10 13 14 15 15 13 11 12 13 12 11 12 11 10 12 19 23 24 35 35 34 35 36 39
29 24 20 18 12 12 14 12 11 13 8 8 9 11 14 12 13 10 13 13 13 19 17 16 17 16 14 13 16 16 15 15 16 16 14 15 14 14 14 16 19 21 22
30 27 22 20 19 17 18 17 15 15 14 17 22 15 15 12 13 14 15 15 15 18 15 15 17 18 16 15 17 15 16 19 19 19 19 19 20 21 21 21 22 24 26
30 30 26 22 20 21 18 15 16 19 18 14 15 16 13 12 12 14 15 16 17 18 16 18 18 18 19 18 20 19 19 17 18 18 20 22 22 23 25 25 26 26 26
33 30 29 25 23 16 16 18 19 21 19 20 13 18 14 17 15 16 17 18 20 20 18 19 21 21 22 21 22 22 22 23 22 21 21 21 22 22 23 24 26 27 28

GFSGL_500_spd_144.txt.gz
Wind_Speed
32 34 34 37 37 37 37 36 39 41 43 45 47 49 50 50 52 54 55 54 54 54 52 52 51 49 46 43 44 42 40 40 35 34 41 41 40 40 36 30 29 29 26
38 39 40 40 41 40 41 42 44 46 48 51 54 56 57 57 59 58 56 57 57 56 55 54 53 54 52 47 44 43 44 41 40 36 39 40 40 42 38 32 29 28 23
42 44 44 44 46 46 47 49 51 53 55 57 59 60 62 63 64 64 62 59 56 55 55 56 54 54 53 51 48 45 45 43 44 42 40 42 42 43 41 34 29 28 21
48 48 48 50 51 53 55 57 58 60 60 61 62 64 66 65 65 64 62 61 57 54 53 54 55 53 50 51 49 47 44 46 45 45 43 42 46 43 43 37 31 30 21
49 51 53 55 58 61 63 63 65 66 66 67 67 67 67 68 66 64 62 56 56 53 51 49 47 50 48 48 49 46 46 46 46 45 44 44 45 46 42 39 35 32 25
52 55 57 60 64 67 68 69 70 71 73 74 73 71 68 68 69 66 62 56 52 52 51 48 46 48 49 48 51 50 49 46 46 46 43 45 44 47 45 42 40 34 30
56 58 62 65 68 68 69 71 73 72 68 62 59 58 58 55 56 58 58 54 52 50 51 50 49 49 49 49 49 50 52 49 48 48 46 44 44 46 49 48 44 39 35
59 62 65 66 67 69 69 66 63 63 62 63 59 56 52 50 50 49 46 46 47 48 49 50 50 49 49 51 50 51 50 52 51 50 49 47 48 51 52 51 48 45 40
61 63 65 65 65 64 59 59 59 54 53 52 48 43 39 39 38 37 39 37 39 43 45 49 51 50 52 52 53 52 52 53 52 50 49 49 52 55 57 54 50 48 42
60 61 61 61 57 52 50 49 50 50 48 37 40 40 36 35 34 35 34 35 37 40 42 44 41 43 46 45 50 51 51 47 50 50 49 50 54 53 58 59 53 50 45
56 60 55 53 49 49 47 48 48 45 43 40 38 36 36 36 31 32 32 33 37 37 39 40 42 45 46 44 46 49 43 44 48 49 49 50 53 55 56 58 58 53 50
53 50 47 45 46 46 44 43 43 42 42 41 38 36 35 32 30 30 31 35 36 34 35 32 26 27 33 41 45 49 43 45 47 46 45 47 49 49 51 52 57 58 56
44 41 41 43 43 44 39 41 42 43 41 36 38 35 33 31 30 31 31 31 29 32 26 23 24 24 23 27 31 35 40 43 45 44 44 41 42 45 47 49 50 53 56
38 38 39 40 39 40 39 38 43 45 42 36 32 31 28 25 29 30 27 29 31 26 25 27 24 26 26 25 28 28 32 37 38 37 39 38 42 44 44 45 45 48 50
37 35 36 39 38 39 38 36 41 36 41 30 28 27 24 24 28 25 25 25 15 10 12 19 24 13 19 14 24 26 25 25 30 33 34 34 38 40 40 43 42 44 47
33 34 35 36 36 37 38 33 38 34 31 26 21 20 24 23 19 19 18 14 4 6 11 18 20 20 18 19 19 21 21 24 26 28 30 32 36 38 38 38 39 41 41
33 33 32 31 32 35 35 32 33 33 32 26 16 13 8 8 13 10 4 4 5 5 9 15 14 8 11 19 21 18 20 21 23 24 28 31 34 35 36 37 38 39 39
32 32 32 30 30 30 32 32 33 31 26 25 20 13 11 13 13 14 11 5 8 9 10 11 15 10 15 5 16 20 22 20 23 21 22 25 29 30 32 34 36 37 39
33 33 33 33 32 30 31 31 31 31 26 25 17 12 10 6 7 10 11 11 7 9 8 10 10 13 14 13 6 15 8 32 24 23 24 25 25 27 29 33 35 37 37
38 38 37 34 32 31 29 29 28 28 26 21 15 12 9 7 5 6 11 10 10 9 8 9 10 12 14 16 8 12 13 7 13 17 23 22 27 30 26 26 26 25 33
37 36 35 32 28 28 27 28 25 25 23 19 17 13 11 8 11 11 10 10 13 15 11 10 10 11 11 12 13 10 17 8 16 12 12 21 18 19 27 22 14 15 16
31 31 30 28 27 27 25 27 25 25 26 18 17 14 14 14 13 9 11 12 12 15 17 15 15 11 11 12 13 12 13 15 6 6 11 16 17 14 15 19 21 19 20
30 29 30 29 28 30 31 29 26 25 20 19 18 15 18 18 16 15 12 13 16 18 18 17 17 17 17 15 14 13 13 11 11 11 12 15 17 19 22 24 27 33 25
30 32 33 33 32 29 27 25 21 22 22 22 19 15 12 14 15 12 13 13 16 18 17 16 18 19 17 17 18 16 16 16 16 16 16 17 17 18 18 19 19 18 17
33 32 31 29 27 28 25 23 20 18 15 16 13 11 15 13 11 10 12 14 13 15 16 15 15 16 17 16 19 20 19 20 19 20 20 20 21 21 21 22 22 21 21
32 32 32 29 25 21 21 21 23 22 18 16 14 10 13 9 13 16 19 16 15 16 18 20 21 19 19 20 19 20 21 21 21 21 23 24 22 22 23 22 23 25 25

GFSGL_500_spd_150.txt.gz
Wind_Speed
31 29 29 27 29 30 32 35 39 42 43 46 48 49 51 52 54 57 59 61 63 63 63 64 64 65 66 63 60 58 57 55 56 45 44 40 43 43 46 45 41 34 21
42 39 27 38 38 40 42 39 43 47 47 50 53 54 56 59 62 62 60 59 60 61 62 64 63 63 63 63 63 63 62 59 59 55 48 47 44 43 44 45 41 39 35
48 24 53 31 43 47 48 43 51 51 53 56 58 59 62 64 63 62 62 63 66 67 65 65 66 67 68 67 65 64 62 58 55 55 49 47 46 44 45 44 43 39 35
46 44 55 56 38 46 51 54 56 57 58 61 63 64 65 65 64 66 68 65 59 56 54 54 55 55 57 58 60 59 57 56 54 51 49 46 46 43 47 43 43 42 39
41 44 50 53 61 55 55 57 59 60 62 64 65 65 64 66 67 66 60 56 56 56 57 57 55 54 54 53 55 55 53 52 51 49 46 45 43 43 45 44 44 42 42
45 46 49 52 52 56 59 59 60 62 65 65 65 64 66 65 60 58 57 55 54 54 52 48 49 52 55 53 52 50 53 50 47 47 46 44 42 42 44 44 45 46 41
47 49 50 52 55 58 59 60 62 64 64 65 65 64 61 56 56 55 53 53 53 55 50 50 49 48 48 48 49 49 49 49 48 47 47 45 44 43 46 47 44 46 41
49 51 53 56 58 59 59 61 62 62 62 63 61 58 54 54 54 50 52 54 51 50 46 45 44 41 39 40 40 43 45 47 48 48 46 45 44 43 47 48 45 46 44
50 53 55 57 58 58 60 60 59 60 60 57 52 52 53 52 51 50 55 49 47 44 40 39 38 33 32 32 34 37 39 43 48 49 48 49 47 47 47 50 49 47 43
51 53 54 55 56 57 57 57 57 56 53 49 49 52 52 53 53 52 56 54 51 39 34 35 33 30 31 33 33 35 39 43 46 48 48 49 51 50 50 51 50 50 44
52 52 54 55 56 55 55 53 51 47 46 46 48 50 50 53 51 53 54 49 38 31 32 31 33 33 34 35 37 39 40 41 43 47 48 51 53 52 53 51 51 50 46
52 53 54 54 52 49 47 45 45 44 43 45 47 48 49 49 51 51 50 35 29 28 29 30 31 34 36 35 34 38 41 38 35 38 43 50 51 49 52 50 50 49 47
52 52 51 50 45 42 44 43 41 42 43 45 47 46 45 47 47 46 36 27 25 28 29 31 31 30 34 35 33 29 34 36 36 28 31 36 43 44 47 50 51 49 46
49 48 45 40 39 40 42 41 41 42 43 43 44 43 43 45 44 44 30 24 25 29 32 33 28 19 15 19 23 32 40 37 36 25 21 25 33 38 40 47 50 48 47
44 41 37 37 39 40 42 43 43 45 44 43 43 42 41 42 44 32 23 23 25 24 22 13 13 17 18 22 25 25 31 35 21 20 23 22 24 33 33 39 41 45 44
37 36 36 39 40 42 43 44 45 45 46 44 41 41 41 42 41 25 19 24 11 9 9 12 18 15 21 25 32 32 20 19 17 17 20 22 23 27 31 35 35 38 39
34 37 40 42 42 43 44 44 43 44 45 42 41 41 39 35 34 22 18 19 6 6 15 16 17 19 21 24 25 33 21 5 15 15 18 20 23 25 30 33 35 36 37
37 40 41 43 45 47 47 47 46 44 43 39 38 38 35 32 32 24 17 14 11 1 9 9 14 16 19 20 23 33 34 19 12 18 17 16 17 19 24 29 29 29 32
39 41 43 45 44 42 41 40 39 37 36 33 32 33 30 27 27 20 15 14 12 13 13 14 13 17 21 21 23 27 40 17 11 5 20 19 20 21 21 24 27 29 31
40 42 40 37 35 34 34 36 36 36 34 31 30 27 26 23 23 21 18 18 15 10 9 17 17 19 19 22 25 25 25 31 4 11 3 26 25 20 24 22 29 27 29
39 36 33 29 31 34 35 37 38 37 37 32 30 28 23 19 21 24 19 23 21 18 16 16 16 19 19 20 23 25 26 24 30 24 7 10 15 19 23 21 22 26 28
33 30 27 31 36 38 39 40 38 35 33 31 28 25 18 21 20 21 19 18 17 15 14 13 16 20 19 18 19 19 21 23 23 23 27 27 14 5 15 19 24 26 32
28 27 30 34 37 39 41 40 36 32 31 28 23 21 17 18 20 18 22 24 20 24 18 13 14 14 16 16 16 17 18 18 20 21 17 17 18 22 18 0 14 23 15
24 27 31 35 37 40 38 38 33 29 27 22 18 19 17 15 15 15 13 18 21 14 6 11 11 12 13 16 17 17 17 18 18 19 18 16 15 16 15 16 18 16 17
22 25 27 31 33 35 36 31 23 13 13 12 18 19 10 8 10 10 10 8 13 18 16 14 14 13 12 15 16 19 20 20 21 20 18 18 17 18 18 17 14 16 18
19 18 23 29 29 30 28 25 18 10 6 4 9 11 17 15 7 10 10 10 13 16 18 18 19 23 18 19 20 22 22 23 23 23 23 23 21 19 20 18 20 18 19

GFSGL_500_spd_153.txt.gz
Wind_Speed
32 35 28 24 38 33 28 24 12 29 40 41 44 46 48 51 49 53 53 53 54 52 51 53 54 55 57 59 60 61 60 60 61 52 52 49 48 46 47 47 40 31 31
41 49 21 33 18 10 33 39 50 39 47 53 50 50 51 56 55 58 56 58 58 56 56 57 59 58 54 53 55 57 60 62 65 63 55 53 50 47 47 49 44 39 32
22 38 31 32 38 43 43 35 30 52 50 53 56 57 58 59 59 60 60 60 60 59 61 60 57 53 52 50 49 49 51 52 54 58 58 57 53 48 46 46 44 42 36
30 38 39 41 42 45 47 48 50 51 56 59 62 63 62 62 61 61 60 60 60 61 59 54 50 50 49 49 52 52 52 52 52 51 53 55 54 47 47 45 46 45 40
34 40 42 44 46 49 50 52 56 60 61 64 65 64 64 62 61 61 61 61 59 56 52 50 49 50 50 52 51 49 47 47 49 51 49 52 51 47 46 47 45 45 43
39 42 44 46 48 51 54 56 58 60 64 66 65 64 62 60 60 60 60 57 54 54 52 50 50 53 50 49 48 47 48 48 47 48 45 50 50 49 48 48 47 45 42
43 45 47 50 52 54 56 58 60 63 64 64 62 60 58 57 56 54 54 53 53 52 52 50 53 50 49 46 46 48 46 45 44 46 47 49 48 50 50 49 48 47 42
46 49 52 54 56 57 58 61 62 61 61 59 58 56 53 51 49 51 52 52 52 50 50 52 53 53 50 43 44 40 39 36 37 40 44 44 44 49 50 50 50 48 44
50 51 52 54 55 57 59 59 58 59 56 55 52 48 46 47 48 50 51 48 50 51 50 55 52 44 39 37 37 35 32 30 33 35 38 41 44 49 50 50 48 49 45
49 50 52 53 55 57 56 56 56 54 52 47 45 45 46 47 51 50 50 51 52 53 54 45 36 31 30 32 34 34 33 35 35 36 37 39 42 48 50 50 48 46 45
49 50 53 55 56 55 55 52 51 47 44 42 43 45 44 47 48 47 50 51 51 57 43 31 27 27 29 31 33 35 37 33 35 36 38 41 44 47 49 50 50 48 47
51 52 55 54 54 51 50 48 43 41 42 43 44 45 46 47 47 48 48 50 54 43 26 23 23 26 30 32 33 33 33 29 32 37 34 34 37 43 47 47 49 50 50
54 53 53 49 48 47 43 41 41 43 43 44 45 45 45 46 47 47 46 48 46 28 22 23 26 31 33 32 22 20 26 33 37 35 30 31 33 39 43 45 49 45 50
51 50 47 47 44 41 40 42 44 45 46 46 46 46 44 44 45 46 41 44 32 26 20 21 19 17 14 18 18 21 24 36 35 33 21 25 28 33 29 30 36 45 49
45 44 43 41 39 40 43 45 47 48 48 48 47 46 43 43 44 43 38 40 33 20 10 11 16 16 15 16 19 24 24 37 28 21 15 15 19 15 18 20 28 36 41
42 40 38 38 40 42 45 47 49 49 49 47 47 43 41 39 40 38 34 35 27 13 15 12 12 18 19 19 19 24 28 33 22 17 18 16 13 13 14 17 26 30 33
37 37 38 40 43 45 46 47 46 46 44 42 42 39 35 34 33 32 31 32 25 7 4 3 7 11 18 22 24 29 29 35 22 20 15 15 12 13 16 13 20 24 26
35 37 41 43 44 45 44 41 39 37 38 38 39 37 34 32 30 26 28 27 26 15 9 6 10 14 18 23 26 25 29 33 25 19 14 10 10 8 9 13 19 21 22
37 40 41 43 45 42 39 36 36 39 40 38 37 37 33 29 27 21 23 21 25 15 11 16 12 16 20 22 23 27 27 31 35 18 17 10 9 7 10 10 13 20 23
38 40 42 42 40 36 35 39 42 43 44 41 38 33 30 28 23 20 18 16 17 19 14 16 16 18 20 23 23 23 23 24 31 30 28 19 8 14 13 15 15 18 19
38 39 38 34 33 35 40 43 45 44 43 42 38 31 26 22 19 18 18 16 17 18 19 19 20 17 19 20 20 20 21 21 21 28 31 18 4 18 18 25 13 15 17
37 34 31 28 32 36 40 41 44 43 41 38 34 28 21 19 15 19 19 18 13 24 22 20 22 15 14 17 18 18 19 20 20 18 19 24 28 20 15 8 5 8 11
31 29 26 27 28 35 35 40 42 41 36 26 23 19 16 15 14 13 17 17 14 16 16 18 9 8 11 13 15 16 17 19 20 21 19 16 16 20 25 22 14 10 13
27 24 23 22 27 33 35 36 36 36 26 15 8 8 12 8 12 12 15 16 10 9 14 17 13 12 12 14 15 18 20 22 23 22 20 19 17 15 10 11 18 23 22
23 20 21 21 24 29 34 34 32 26 18 18 15 11 13 13 8 9 7 7 9 12 13 15 16 16 16 18 19 21 22 22 22 24 24 22 18 17 17 15 10 9 11
21 19 17 19 20 23 27 31 30 28 23 17 12 14 13 16 11 9 9 13 12 14 15 15 17 15 17 17 19 21 23 23 24 23 22 24 23 22 21 20 19 15 14

GFSGL_500_spd_156.txt.gz
Wind_Speed
40 43 46 20 25 24 23 8 28 29 29 34 38 38 45 44 44 46 48 50 51 52 50 50 50 49 48 50 52 53 54 54 56 51 52 54 55 54 53 51 49 47 42
38 36 45 38 23 24 29 22 36 36 35 38 35 46 48 47 48 50 53 55 55 54 52 52 52 54 55 54 54 52 52 53 55 55 50 53 55 56 57 57 51 50 46
39 39 33 34 31 31 34 30 37 38 41 42 45 47 49 50 50 54 56 56 55 55 55 55 55 56 55 52 51 50 50 50 50 51 50 50 50 51 54 57 55 54 49
37 39 39 39 38 36 37 37 41 43 44 45 47 52 53 54 54 56 57 57 57 58 57 56 55 54 52 50 48 49 49 49 49 51 51 49 53 53 51 53 55 54 51
39 37 41 42 42 35 41 43 45 47 48 50 52 52 52 54 57 58 58 58 58 56 54 53 53 52 51 51 49 48 49 48 48 50 49 50 49 51 52 51 50 53 52
43 44 43 43 44 45 45 46 47 50 50 50 51 53 55 58 58 59 59 54 53 52 50 50 49 50 52 50 51 50 49 48 46 46 47 49 49 51 53 52 52 52 51
49 50 50 50 50 48 48 48 49 48 50 53 54 56 58 58 59 56 52 52 52 53 54 52 52 52 52 52 52 54 54 50 46 45 43 44 47 50 52 52 54 53 52
53 53 53 52 51 52 52 52 52 54 58 60 59 57 57 56 52 49 48 49 51 54 52 52 51 50 53 55 52 46 44 38 37 39 38 37 38 43 48 52 53 51 51
54 55 54 54 54 53 55 59 62 61 59 56 55 55 51 48 48 49 49 50 50 51 53 52 54 56 50 35 29 28 26 31 35 35 37 37 37 37 39 46 49 48 49
50 52 53 53 55 57 58 59 57 54 51 52 50 46 46 47 49 49 50 49 47 50 50 52 55 39 28 25 23 25 26 29 31 34 38 42 41 38 36 39 46 46 48
48 49 51 53 55 57 54 53 50 50 49 46 44 47 49 49 50 50 48 46 46 48 50 50 36 26 24 24 25 27 29 29 29 30 34 41 43 42 35 33 40 47 49
49 51 53 54 52 50 49 50 50 47 44 43 46 49 51 51 50 50 47 44 44 45 46 47 35 24 25 28 23 14 11 17 19 28 35 36 34 33 38 33 34 41 43
52 53 53 50 50 48 50 49 45 43 44 47 50 51 51 49 48 48 45 44 44 42 43 39 16 15 14 7 12 14 14 23 27 37 33 28 24 29 29 31 34 36 41
54 51 49 49 49 49 48 44 44 46 48 50 51 49 48 45 42 41 39 39 38 36 37 24 16 15 9 8 13 13 22 30 34 33 28 16 13 16 20 27 30 33 38
50 48 49 48 47 45 43 45 47 50 50 50 47 43 41 39 38 36 34 32 31 28 32 19 18 13 12 15 21 23 27 33 34 29 26 18 18 19 9 13 19 27 33
47 47 47 44 41 42 45 49 50 50 49 45 41 40 39 38 36 34 32 30 26 25 29 18 13 10 12 17 23 28 28 36 36 25 23 21 12 15 10 12 14 16 20
45 44 41 39 41 44 46 48 50 48 43 39 40 42 42 40 36 34 31 28 26 21 26 17 13 9 17 21 25 26 30 32 37 27 22 18 16 10 11 6 9 10 14
40 37 39 40 43 45 48 46 42 39 41 45 46 46 45 41 34 32 28 23 21 17 25 19 21 20 16 20 24 27 26 29 31 36 20 17 8 9 6 7 8 9 15
35 37 40 42 44 45 41 38 39 42 45 46 47 46 44 38 31 28 23 18 13 16 19 21 15 15 14 18 21 22 21 23 25 30 28 17 8 6 7 3 4 10 13
37 39 41 45 43 38 34 36 41 45 47 49 47 45 39 36 28 24 18 16 11 10 11 18 18 18 17 17 19 19 18 19 22 26 29 27 19 9 3 14 5 7 16
37 38 40 37 36 31 30 36 43 45 47 44 41 35 29 25 21 18 15 13 16 17 12 19 14 15 19 21 14 15 16 15 18 20 24 28 29 18 19 4 14 11 9
38 38 35 31 27 28 32 38 42 44 42 38 33 22 12 8 11 9 8 10 12 14 12 14 18 13 10 9 11 10 14 18 20 20 22 21 20 27 24 20 10 8 11
37 34 30 26 24 24 29 34 39 41 36 34 25 20 18 9 3 5 5 10 14 13 5 6 12 13 10 9 10 15 18 18 20 21 21 21 20 17 17 24 28 13 14
33 29 26 24 22 22 26 30 33 35 28 29 23 23 22 11 7 6 6 9 8 7 8 9 14 14 12 13 15 17 18 19 19 20 22 21 19 18 15 14 14 17 22
30 25 24 21 19 20 24 25 27 28 29 26 22 22 20 20 17 9 10 14 13 13 12 11 12 12 12 13 14 15 17 19 21 21 19 19 19 17 17 15 13 12 11
26 23 23 19 18 19 20 21 23 24 24 25 23 20 18 16 16 15 14 13 13 14 15 15 16 17 17 17 17 18 19 21 23 23 24 24 24 22 19 18 18 15 14

GFSGL_500_spd_159.txt.gz
Wind_Speed
34 34 32 31 30 32 26 24 26 29 30 36 42 40 42 42 41 46 47 47 50 51 51 50 48 48 49 50 49 50 50 51 55 52 49 48 49 51 53 54 55 54 52
33 36 36 34 33 33 31 32 35 36 37 39 42 42 41 41 44 47 47 50 52 53 51 50 50 51 50 50 51 52 53 54 56 56 50 48 49 50 54 55 55 56 56
35 36 37 37 38 37 36 37 39 40 43 42 42 41 42 44 46 49 51 53 52 51 52 52 52 50 50 50 50 50 50 52 51 53 49 48 47 48 51 53 54 54 56
38 39 41 40 39 38 40 41 41 43 42 42 42 44 45 47 50 52 50 51 51 52 52 49 47 48 49 49 48 48 48 48 51 50 47 48 48 49 49 52 53 55 53
43 42 42 42 42 41 40 41 42 42 42 42 44 47 50 51 51 50 50 50 50 47 46 46 47 49 50 52 52 51 51 52 51 50 48 50 49 48 49 50 51 54 55
46 45 44 44 43 44 44 44 44 44 45 48 50 50 49 49 49 50 50 45 45 45 46 48 50 51 52 53 54 52 52 50 51 51 51 50 53 52 50 49 49 52 52
48 47 45 46 46 46 46 46 47 49 52 54 53 50 49 48 49 46 44 45 48 50 51 52 52 52 53 52 55 55 59 59 57 53 47 45 47 49 49 50 52 52 51
56 54 53 51 51 50 51 53 54 55 56 52 50 49 50 51 48 46 47 50 51 53 54 53 52 52 54 56 56 51 39 31 31 35 36 34 35 39 41 41 45 47 48
60 58 58 56 55 54 54 55 58 58 54 53 53 52 51 49 48 49 50 52 53 53 54 54 52 50 52 52 52 35 29 29 32 32 32 32 34 36 38 40 40 42 44
60 58 57 56 55 55 56 58 57 54 54 53 55 54 49 48 51 53 54 55 54 52 53 51 50 50 50 54 42 32 30 31 32 34 36 35 37 39 41 42 43 43 45
57 54 53 52 53 53 56 55 55 56 56 54 50 48 49 51 53 54 54 53 50 50 49 47 46 46 51 37 27 28 25 13 14 18 22 27 35 40 45 47 46 42 43
54 53 53 54 54 56 54 52 54 53 49 46 47 50 53 53 53 53 50 48 48 45 44 40 39 38 35 20 10 10 16 18 23 29 32 41 43 47 40 43 38 32 33
55 54 55 56 57 52 51 52 51 47 46 48 51 52 53 53 49 45 43 43 44 43 38 34 34 37 25 22 14 17 20 25 29 34 33 37 35 34 23 27 25 19 23
55 55 57 55 50 50 51 49 46 47 49 51 52 54 52 47 42 39 41 43 43 39 36 31 29 30 19 17 13 20 27 30 34 35 37 36 30 22 17 19 22 22 23
54 57 51 49 50 50 46 45 47 49 51 54 54 49 45 43 42 42 41 41 40 34 30 28 25 28 16 11 14 23 29 33 33 35 37 31 28 21 16 17 12 14 17
56 51 49 48 46 43 45 46 48 52 54 51 47 46 46 46 47 46 43 40 36 33 26 23 22 19 10 12 20 26 28 31 32 32 35 27 25 27 12 12 12 12 14
51 47 46 43 41 43 46 49 53 51 47 46 47 49 50 49 47 45 39 33 29 27 24 20 20 19 20 21 22 23 26 26 30 31 36 24 20 19 8 11 10 9 9
45 44 44 41 41 42 45 48 45 42 45 50 52 54 55 51 44 41 35 28 23 20 16 15 15 17 16 19 19 20 23 25 27 29 34 30 19 19 11 12 10 7 7
44 43 40 39 40 43 45 42 38 39 47 50 55 53 50 45 38 33 25 19 15 16 11 12 16 15 13 14 16 21 18 20 21 24 29 34 27 11 13 8 7 7 7
42 38 37 39 42 42 40 35 34 39 44 48 46 43 43 36 25 14 11 10 9 13 14 13 15 13 13 13 14 15 14 13 18 23 26 29 32 29 10 7 15 7 9
36 34 38 41 41 39 33 31 32 37 40 42 45 44 39 29 19 8 5 4 7 10 14 9 12 13 10 10 7 7 7 13 16 20 23 25 26 27 28 22 16 9 17
33 35 37 40 38 34 30 27 30 34 35 39 35 41 33 27 17 5 4 2 5 11 14 12 7 10 15 11 9 8 12 15 16 18 20 22 24 23 24 25 26 6 5
33 36 38 37 33 29 26 24 27 30 30 34 34 31 32 30 15 10 10 9 10 8 8 9 8 12 15 11 12 15 18 18 18 19 18 18 18 21 21 22 18 13 11
33 35 37 33 30 27 23 22 24 26 27 28 31 29 26 25 24 14 16 15 13 14 13 13 12 12 12 12 13 14 16 18 19 19 20 19 18 18 18 17 16 16 12
32 35 34 30 28 25 21 20 21 22 23 23 24 25 24 21 18 16 15 15 16 16 16 16 15 16 17 16 16 17 18 20 21 23 23 24 24 22 20 19 16 14 16
33 33 31 29 26 24 21 20 19 19 19 20 18 18 19 18 17 16 16 16 17 17 17 18 18 18 18 19 19 19 19 20 21 22 23 24 25 25 25 23 19 18 14